#timestamp,LO_Frequency,Hit,StdDev 
1585076415.5,286046999.6,N
1585076435.4,286046999.6,N
1585076455.2,286047000.6,N
1585076475.0,286047001.2,N
1585076475.9,286047001.2,N
1585076495.8,286046999.1,N
1585076515.6,286046996.7,N
1585076535.5,286046999.0,N
1585076555.3,286046996.6,N
1585076575.1,286046999.3,N
1585076595.9,286046998.8,N
1585076615.7,286046999.9,N
1585076635.5,286047000.9,N
1585076655.4,286046999.3,N
1585076675.2,286046998.9,N
1585076695.1,286046999.8,N
1585076696.0,286046999.8,N
1585076715.8,286046998.6,N
1585076735.6,286047000.1,N
1585076755.5,286047001.9,N
1585076775.3,286046998.6,N
1585076795.1,286046998.4,N
1585076815.9,286046999.4,N
1585076835.7,286046999.2,N
1585076855.6,286046998.6,N
1585076875.4,286046999.4,N
1585076895.2,286046999.5,N
1585076915.1,286046996.6,N
1585076916.0,286046996.6,N
1585076935.8,286046999.3,N
1585076955.7,286046996.6,N
1585076975.5,286046995.3,Y
1585076995.3,286046996.9,P
1585077015.2,286046998.4,N
1585077035.0,286046998.4,N
1585077035.9,286046998.4,N
1585077055.8,286046997.9,N
1585077075.6,286046993.3,Y
1585077095.4,286046998.5,P
1585077115.3,286046998.5,P
1585077135.1,286046998.4,P
1585077155.9,286047001.2,Y
1585077175.7,286046998.5,P
1585077195.5,286046998.1,P
1585077215.4,286046999.9,N
1585077235.2,286047000.5,N
1585077255.0,286047001.2,N
1585077255.9,286047001.2,N
1585077275.8,286046998.7,N
1585077295.6,286046999.8,N
1585077315.5,286047002.2,N
1585077335.3,286047002.3,N
1585077355.1,286046999.9,N
1585077375.9,286047000.2,N
1585077395.7,286047001.9,N
1585077415.6,286047002.1,N
1585077435.4,286047002.2,N
1585077455.2,286047002.2,N
1585077475.1,286047004.4,N
1585077476.0,286047004.4,N
1585077495.8,286047003.4,N
1585077515.7,286047004.0,N
1585077535.5,286047005.1,N
1585077555.3,286047006.7,Y
1585077575.2,286047003.7,P
1585077595.0,286047001.8,N
1585077595.9,286047001.8,N
1585077615.7,286047002.0,N
1585077635.6,286047001.9,N
1585077655.4,286047002.8,Y
1585077675.3,286046998.5,P
1585077695.1,286046997.0,N
1585077715.8,286047000.8,N
1585077735.7,286046998.2,N
1585077755.5,286047000.3,N
1585077775.4,286046998.4,N
1585077795.2,286046999.2,N
1585077815.0,286046996.6,N
1585077815.9,286046996.6,N
1585077835.8,286046999.5,N
1585077855.6,286046998.9,N
1585077875.4,286046998.8,N
1585077895.3,286046998.3,N
1585077915.1,286046998.7,N
1585077935.9,286046998.6,N
1585077955.7,286047001.1,N
1585077975.5,286046998.3,N
1585077995.4,286046998.5,N
1585078015.2,286046999.0,N
1585078035.1,286046999.2,N
1585078036.0,286046999.2,N
1585078055.8,286046999.0,N
1585078075.6,286046999.6,N
1585078095.5,286046997.2,N
1585078115.3,286046999.4,N
1585078135.1,286046999.2,N
1585078155.9,286046999.1,N
1585078175.7,286046999.4,N
1585078195.6,286046998.8,N
1585078215.4,286047000.7,N
1585078235.2,286046998.3,N
1585078255.1,286046999.0,N
1585078256.0,286046999.0,N
1585078275.8,286046998.8,N
1585078295.6,286046998.7,N
1585078315.5,286046995.8,Y
1585078335.3,286046996.6,P
1585078355.2,286046998.0,N
1585078375.0,286046999.1,N
1585078375.9,286046999.1,N
1585078395.7,286046999.4,N
1585078415.6,286046998.1,N
1585078435.4,286047001.0,N
1585078455.3,286047002.8,N
1585078475.1,286047002.5,N
1585078476.0,286047002.5,N
1585078495.8,286047003.7,N
1585078515.7,286047003.8,N
1585078535.5,286047002.6,N
1585078555.3,286047002.3,N
1585078575.2,286047002.1,N
1585078595.0,286047000.1,N
1585078595.9,286047000.1,N
1585078615.8,286047004.4,N
1585078635.6,286047002.0,N
1585078655.4,286047000.3,N
1585078675.3,286047001.6,N
1585078695.1,286047001.4,N
1585078715.9,286047000.2,N
1585078735.7,286047002.5,N
1585078755.5,286047004.0,N
1585078775.4,286046999.7,N
1585078795.2,286046999.8,N
1585078815.0,286047002.4,N
1585078815.9,286047002.4,N
1585078835.8,286046998.5,N
1585078855.6,286046996.5,N
1585078875.5,286046999.5,N
1585078895.3,286047000.8,N
1585078915.1,286046998.2,N
1585078935.9,286047000.9,N
1585078955.7,286046998.5,N
1585078975.6,286047000.7,N
1585078995.4,286047001.5,N
1585079015.2,286047001.9,N
1585079035.1,286047001.4,N
1585079036.0,286047001.4,N
1585079055.8,286047004.1,N
1585079075.6,286047004.3,N
1585079095.5,286047004.0,N
1585079115.3,286047002.4,N
1585079135.2,286046999.7,N
1585079155.9,286047000.1,N
1585079175.7,286047002.2,N
1585079195.6,286047002.0,N
1585079215.4,286047002.7,N
1585079235.3,286047000.6,N
1585079255.1,286047001.0,N
1585079256.0,286047001.0,N
1585079275.8,286047000.6,N
1585079295.7,286047000.3,N
1585079315.5,286047000.7,N
1585079335.3,286046999.9,N
1585079355.2,286047000.6,N
1585079375.0,286047001.1,N
1585079375.9,286047001.1,N
1585079395.8,286046999.9,N
1585079415.6,286047000.4,N
1585079435.4,286047000.1,N
1585079455.3,286046999.7,N
1585079475.1,286046999.3,N
1585079495.9,286046998.8,N
1585079515.7,286047000.6,N
1585079535.5,286047002.1,N
1585079555.4,286047002.5,N
1585079575.2,286047002.3,N
1585079595.1,286047002.5,N
1585079596.0,286047002.5,N
1585079615.8,286047001.8,N
1585079635.6,286047004.3,Y
1585079655.5,286046999.9,P
1585079675.3,286046998.5,N
1585079695.2,286047000.4,N
1585079715.9,286046998.2,N
1585079735.7,286046999.7,N
1585079755.6,286046998.7,N
1585079775.4,286047000.1,N
1585079795.2,286047000.6,N
1585079815.1,286046999.7,N
1585079816.0,286046999.7,N
1585079835.8,286047001.6,N
1585079855.7,286047002.0,N
1585079875.5,286046999.9,N
1585079895.3,286046999.7,N
1585079915.2,286046999.7,N
1585079935.0,286047001.2,N
1585079935.9,286047001.2,N
1585079955.8,286046998.5,N
1585079975.6,286046998.3,N
1585079995.4,286047001.2,N
